| time (UTC) | temp F | wind direction | speed knots | gust knots | rain 1hr in | rain 24hr in | rain mn in | humidity % | barometer mb |
| 20260503230117 | 92 | 311 | 4.3 | 7.0 | 0.00 | 0.00 | 0.00 | 28 | 1007.7 |
| 20260503225614 | 92 | 282 | 3.5 | 6.1 | 0.00 | 0.00 | 0.00 | 28 | 1007.6 |
| 20260503225113 | 94 | 275 | 1.7 | 4.3 | 0.00 | 0.00 | 0.00 | 30 | 1007.8 |
| 20260503224611 | 94 | 321 | 1.7 | 1.7 | 0.00 | 0.00 | 0.00 | 28 | 1008.0 |
| 20260503224109 | 93 | 354 | 4.3 | 5.2 | 0.00 | 0.00 | 0.00 | 29 | 1007.9 |
| 20260503223607 | 92 | 300 | 2.6 | 6.1 | 0.00 | 0.00 | 0.00 | 31 | 1007.8 |
| 20260503223102 | 94 | 320 | 3.5 | 5.2 | 0.00 | 0.00 | 0.00 | 28 | 1008.1 |
| 20260503222600 | 94 | 251 | 0.9 | 1.7 | 0.00 | 0.00 | 0.00 | 26 | 1008.0 |
| 20260503222058 | 90 | 296 | 2.6 | 4.3 | 0.00 | 0.00 | 0.00 | 33 | 1008.1 |
| 20260503221556 | 90 | 298 | 3.5 | 5.2 | 0.00 | 0.00 | 0.00 | 34 | 1008.1 |
| 20260503221053 | 89 | 297 | 1.7 | 7.8 | 0.00 | 0.00 | 0.00 | 33 | 1008.3 |
| 20260503220549 | 90 | 277 | 4.3 | 5.2 | 0.00 | 0.00 | 0.00 | 32 | 1008.5 |
| 20260503220046 | 89 | 295 | 2.6 | 8.7 | 0.00 | 0.00 | 0.00 | 33 | 1008.6 |
| 20260503215543 | 89 | 294 | 6.1 | 7.8 | 0.00 | 0.00 | 0.00 | 33 | 1008.5 |
| 20260503215040 | 89 | 283 | 2.6 | 7.8 | 0.00 | 0.00 | 0.00 | 33 | 1008.6 |
| 20260503214539 | 91 | 275 | 3.5 | 5.2 | 0.00 | 0.00 | 0.00 | 30 | 1008.5 |
| 20260503214035 | 93 | 266 | 2.6 | 4.3 | 0.00 | 0.00 | 0.00 | 30 | 1008.7 |
| 20260503213533 | 92 | 329 | 1.7 | 5.2 | 0.00 | 0.00 | 0.00 | 32 | 1008.5 |
| 20260503213030 | 92 | 192 | 0.9 | 1.7 | 0.00 | 0.00 | 0.00 | 29 | 1008.8 |
| 20260503212527 | 93 | 266 | 1.7 | 1.7 | 0.00 | 0.00 | 0.00 | 30 | 1008.9 |
| 20260503212024 | 91 | 226 | 0.9 | 4.3 | 0.00 | 0.00 | 0.00 | 29 | 1009.0 |
| 20260503211521 | 92 | 291 | 2.6 | 4.3 | 0.00 | 0.00 | 0.00 | 29 | 1009.0 |
| 20260503211017 | 93 | 153 | 0.0 | 1.7 | 0.00 | 0.00 | 0.00 | 30 | 1009.1 |
| 20260503210514 | 92 | 223 | 0.9 | 2.6 | 0.00 | 0.00 | 0.00 | 31 | 1008.8 |
| 20260503210010 | 91 | 260 | 0.9 | 4.3 | 0.00 | 0.00 | 0.00 | 31 | 1009.3 |
| 20260503205506 | 91 | 121 | 0.9 | 1.7 | 0.00 | 0.00 | 0.00 | 30 | 1009.2 |
| 20260503205003 | 91 | 201 | 1.7 | 2.6 | 0.00 | 0.00 | 0.00 | 34 | 1009.5 |
| 20260503204500 | 90 | 138 | 0.9 | 4.3 | 0.00 | 0.00 | 0.00 | 35 | 1009.1 |
| 20260503203956 | 90 | 279 | 2.6 | 4.3 | 0.00 | 0.00 | 0.00 | 35 | 1009.4 |
| 20260503203454 | 90 | 285 | 3.5 | 5.2 | 0.00 | 0.00 | 0.00 | 33 | 1009.4 |
| 20260503202950 | 88 | 257 | 3.5 | 4.3 | 0.00 | 0.00 | 0.00 | 35 | 1009.5 |
| 20260503202449 | 89 | 158 | 0.9 | 1.7 | 0.00 | 0.00 | 0.00 | 37 | 1009.6 |
| 20260503201947 | 87 | 3 | 3.5 | 7.0 | 0.00 | 0.00 | 0.00 | 42 | 1009.7 |
| 20260503201444 | 87 | 274 | 3.5 | 4.3 | 0.00 | 0.00 | 0.00 | 39 | 1009.6 |
| 20260503200941 | 86 | 108 | 0.9 | 5.2 | 0.00 | 0.00 | 0.00 | 42 | 1009.8 |
| 20260503200438 | 87 | 289 | 0.9 | 1.7 | 0.00 | 0.00 | 0.00 | 41 | 1009.8 |
| 20260503195934 | 84 | 340 | 1.7 | 4.3 | 0.00 | 0.00 | 0.00 | 48 | 1010.0 |
| 20260503195432 | 83 | 185 | 0.9 | 4.3 | 0.00 | 0.00 | 0.00 | 48 | 1010.1 |
| 20260503194928 | 81 | 255 | 1.7 | 6.1 | 0.00 | 0.00 | 0.00 | 49 | 1010.4 |
| 20260503194425 | 80 | 213 | 2.6 | 5.2 | 0.00 | 0.00 | 0.00 | 49 | 1010.1 |
| 20260503193920 | 80 | 251 | 1.7 | 5.2 | 0.00 | 0.00 | 0.00 | 50 | 1010.4 |
| 20260503193416 | 81 | 301 | 3.5 | 5.2 | 0.00 | 0.00 | 0.00 | 48 | 1010.2 |
| 20260503192912 | 81 | 290 | 2.6 | 4.3 | 0.00 | 0.00 | 0.00 | 50 | 1010.5 |
| 20260503192408 | 80 | 284 | 2.6 | 5.2 | 0.00 | 0.00 | 0.00 | 52 | 1010.4 |
| 20260503191904 | 78 | 288 | 2.6 | 5.2 | 0.00 | 0.00 | 0.00 | 52 | 1010.5 |
| 20260503191402 | 77 | 285 | 1.7 | 6.1 | 0.00 | 0.00 | 0.00 | 54 | 1010.4 |
| 20260503190858 | 78 | 309 | 2.6 | 5.2 | 0.00 | 0.00 | 0.00 | 55 | 1010.6 |
| 20260503190355 | 78 | 276 | 3.5 | 5.2 | 0.00 | 0.00 | 0.00 | 52 | 1010.7 |
| 20260503185852 | 79 | 302 | 2.6 | 4.3 | 0.00 | 0.00 | 0.00 | 53 | 1010.6 |
| 20260503185349 | 76 | 261 | 3.5 | 5.2 | 0.00 | 0.00 | 0.00 | 55 | 1010.9 |
| 20260503184848 | 75 | 289 | 2.6 | 6.1 | 0.00 | 0.00 | 0.00 | 55 | 1010.8 |
| 20260503184344 | 77 | 287 | 2.6 | 4.3 | 0.00 | 0.00 | 0.00 | 55 | 1011.0 |
| 20260503183840 | 75 | 281 | 2.6 | 5.2 | 0.00 | 0.00 | 0.00 | 58 | 1011.0 |
| 20260503183338 | 76 | 314 | 1.7 | 4.3 | 0.00 | 0.00 | 0.00 | 56 | 1011.0 |
| 20260503182835 | 74 | 292 | 4.3 | 6.1 | 0.00 | 0.00 | 0.00 | 57 | 1011.1 |
| 20260503182334 | 74 | 291 | 3.5 | 6.1 | 0.00 | 0.00 | 0.00 | 59 | 1011.1 |
| 20260503181831 | 73 | 295 | 3.5 | 6.1 | 0.00 | 0.00 | 0.00 | 61 | 1011.1 |
| 20260503181328 | 73 | 207 | 1.7 | 2.6 | 0.00 | 0.00 | 0.00 | 62 | 1011.3 |
| 20260503180824 | 72 | 251 | 1.7 | 4.3 | 0.00 | 0.00 | 0.00 | 62 | 1011.3 |
| 20260503180322 | 72 | 190 | 1.7 | 1.7 | 0.00 | 0.00 | 0.00 | 62 | 1011.3 |
| 20260503175818 | 71 | 281 | 4.3 | 5.2 | 0.00 | 0.00 | 0.00 | 65 | 1011.3 |
| 20260503175317 | 72 | 178 | 0.9 | 2.6 | 0.00 | 0.00 | 0.00 | 66 | 1011.4 |
| 20260503174812 | 71 | 265 | 2.6 | 4.3 | 0.00 | 0.00 | 0.00 | 67 | 1011.7 |
| 20260503174310 | 70 | 109 | 0.9 | 1.7 | 0.00 | 0.00 | 0.00 | 68 | 1011.7 |
| 20260503173806 | 70 | 248 | 3.5 | 5.2 | 0.00 | 0.00 | 0.00 | 70 | 1011.8 |
| 20260503173302 | 69 | 282 | 2.6 | 4.3 | 0.00 | 0.00 | 0.00 | 70 | 1011.5 |
| 20260503172759 | 67 | 260 | 2.6 | 4.3 | 0.00 | 0.00 | 0.00 | 73 | 1011.6 |
| 20260503172256 | 68 | 299 | 4.3 | 5.2 | 0.00 | 0.00 | 0.00 | 73 | 1011.8 |
| 20260503171752 | 66 | 279 | 1.7 | 4.3 | 0.00 | 0.00 | 0.00 | 75 | 1011.7 |
| 20260503171249 | 67 | 299 | 2.6 | 2.6 | 0.00 | 0.00 | 0.00 | 74 | 1011.7 |
| 20260503170746 | 67 | 275 | 2.6 | 2.6 | 0.00 | 0.00 | 0.00 | 76 | 1011.7 |
| 20260503170243 | 67 | 303 | 0.9 | 2.6 | 0.00 | 0.00 | 0.00 | 76 | 1012.0 |
| 20260503160205 | 62 | 196 | 1.7 | 1.7 | 0.00 | 0.00 | 0.00 | 85 | 1012.2 |
| 20260503150635 | 62 | 158 | 0.0 | 0.0 | 0.00 | 0.00 | 0.00 | 87 | 1012.2 |
| 20260503150131 | 62 | 157 | 0.0 | 0.0 | 0.00 | 0.00 | 0.00 | 86 | 1012.2 |
| 20260503131025 | 54 | 27 | 0.0 | 0.0 | 0.00 | 0.00 | 0.00 | 99 | 1011.7 |
| 20260503130522 | 53 | 44 | 0.0 | 0.0 | 0.00 | 0.00 | 0.00 | 99 | 1011.8 |
| 20260503110413 | 55 | 150 | 0.0 | 0.0 | 0.00 | 0.00 | 0.00 | 98 | 1012.1 |
| 20260503090304 | 59 | 137 | 0.0 | 0.0 | 0.00 | 0.00 | 0.00 | 91 | 1012.6 |
| 20260503081237 | 58 | 113 | 0.0 | 0.9 | 0.00 | 0.00 | 0.00 | 93 | 1012.4 |
| 20260503080732 | 58 | 156 | 0.0 | 0.0 | 0.00 | 0.00 | 0.00 | 92 | 1012.0 |
| 20260503080230 | 58 | 171 | 0.0 | 0.9 | 0.00 | 0.00 | 0.00 | 92 | 1012.3 |
| 20260503072706 | 60 | 107 | 0.0 | 0.0 | 0.00 | 0.00 | 0.00 | 88 | 1012.6 |
| 20260503072203 | 60 | 107 | 0.0 | 0.9 | 0.00 | 0.00 | 0.00 | 88 | 1012.5 |
| 20260503071700 | 60 | 107 | 0.0 | 0.0 | 0.00 | 0.00 | 0.00 | 88 | 1012.3 |
| 20260503071157 | 60 | 107 | 0.0 | 0.9 | 0.00 | 0.00 | 0.00 | 88 | 1012.4 |
| 20260503070653 | 60 | 108 | 0.0 | 0.0 | 0.00 | 0.00 | 0.00 | 88 | 1012.3 |
| 20260503070152 | 60 | 116 | 0.0 | 0.0 | 0.00 | 0.00 | 0.00 | 88 | 1012.4 |
| 20260503060115 | 62 | 157 | 0.9 | 1.7 | 0.00 | 0.00 | 0.00 | 82 | 1011.9 |
| 20260503055107 | 62 | 263 | 0.0 | 0.0 | 0.00 | 0.00 | 0.00 | 82 | 1011.9 |
| 20260503054603 | 62 | 233 | 0.0 | 0.0 | 0.00 | 0.00 | 0.00 | 82 | 1012.1 |
| 20260503054100 | 62 | 178 | 0.0 | 0.0 | 0.00 | 0.00 | 0.00 | 82 | 1012.3 |
| 20260503053558 | 62 | 213 | 0.9 | 0.9 | 0.00 | 0.00 | 0.00 | 82 | 1012.3 |
| 20260503053056 | 62 | 196 | 0.9 | 0.9 | 0.00 | 0.00 | 0.00 | 82 | 1012.1 |
| 20260503052552 | 63 | 179 | 0.0 | 0.9 | 0.00 | 0.00 | 0.00 | 81 | 1012.4 |
| 20260503052049 | 63 | 169 | 0.0 | 0.0 | 0.00 | 0.00 | 0.00 | 80 | 1012.4 |
| 20260503051544 | 64 | 66 | 0.0 | 0.9 | 0.00 | 0.00 | 0.00 | 79 | 1012.5 |
| 20260503051042 | 63 | 123 | 0.0 | 0.0 | 0.00 | 0.00 | 0.00 | 79 | 1012.6 |
| 20260503050538 | 63 | 172 | 0.0 | 0.0 | 0.00 | 0.00 | 0.00 | 80 | 1012.6 |
| 20260503050035 | 64 | 188 | 0.0 | 0.0 | 0.00 | 0.00 | 0.00 | 79 | 1012.5 |
| 20260503045532 | 64 | 134 | 0.0 | 0.0 | 0.00 | 0.00 | 0.00 | 78 | 1012.7 |
| 20260503045030 | 64 | 153 | 0.0 | 0.0 | 0.00 | 0.00 | 0.00 | 78 | 1012.7 |
| 20260503044526 | 64 | 154 | 0.0 | 0.9 | 0.00 | 0.00 | 0.00 | 78 | 1012.7 |
| 20260503044024 | 64 | 114 | 0.0 | 1.7 | 0.00 | 0.00 | 0.00 | 78 | 1012.7 |
| 20260503043520 | 64 | 299 | 0.9 | 1.7 | 0.00 | 0.00 | 0.00 | 78 | 1012.5 |
| 20260503043017 | 64 | 204 | 0.9 | 0.9 | 0.00 | 0.00 | 0.00 | 78 | 1012.4 |
| 20260503042514 | 64 | 70 | 0.0 | 1.7 | 0.00 | 0.00 | 0.00 | 78 | 1012.6 |
| 20260503042010 | 64 | 219 | 0.9 | 1.7 | 0.00 | 0.00 | 0.00 | 77 | 1012.5 |
| 20260503041507 | 64 | 161 | 0.0 | 0.9 | 0.00 | 0.00 | 0.00 | 78 | 1012.5 |
| 20260503041005 | 64 | 166 | 0.0 | 0.9 | 0.00 | 0.00 | 0.00 | 77 | 1012.8 |
| 20260503040502 | 64 | 62 | 0.0 | 0.9 | 0.00 | 0.00 | 0.00 | 76 | 1012.5 |
| 20260503035958 | 64 | 121 | 0.9 | 2.6 | 0.00 | 0.00 | 0.00 | 76 | 1012.5 |
| 20260503035455 | 65 | 96 | 0.9 | 1.7 | 0.00 | 0.00 | 0.00 | 76 | 1012.6 |
| 20260503034953 | 65 | 91 | 0.9 | 1.7 | 0.00 | 0.00 | 0.00 | 76 | 1012.4 |
| 20260503034450 | 65 | 99 | 0.9 | 0.9 | 0.00 | 0.00 | 0.00 | 76 | 1012.3 |
| 20260503033947 | 65 | 164 | 0.0 | 1.7 | 0.00 | 0.00 | 0.00 | 76 | 1012.2 |
| 20260503033444 | 65 | 210 | 0.9 | 2.6 | 0.00 | 0.00 | 0.00 | 75 | 1012.0 |
| 20260503032943 | 65 | 183 | 2.6 | 2.6 | 0.00 | 0.00 | 0.00 | 75 | 1012.1 |
| 20260503032441 | 65 | 226 | 1.7 | 2.6 | 0.00 | 0.00 | 0.00 | 75 | 1012.2 |
| 20260503031938 | 65 | 173 | 0.9 | 2.6 | 0.00 | 0.00 | 0.00 | 75 | 1011.9 |
| 20260503031436 | 65 | 173 | 1.7 | 2.6 | 0.00 | 0.00 | 0.00 | 75 | 1012.0 |
| 20260503030932 | 66 | 274 | 1.7 | 4.3 | 0.00 | 0.00 | 0.00 | 75 | 1012.0 |
| 20260503030429 | 66 | 207 | 2.6 | 5.2 | 0.00 | 0.00 | 0.00 | 74 | 1012.0 |
| 20260503025926 | 67 | 233 | 2.6 | 7.8 | 0.00 | 0.00 | 0.00 | 73 | 1012.2 |
| 20260503025423 | 67 | 152 | 1.7 | 7.0 | 0.00 | 0.00 | 0.00 | 72 | 1011.9 |
| 20260503024920 | 67 | 79 | 1.7 | 6.1 | 0.00 | 0.00 | 0.00 | 71 | 1011.8 |
| 20260503024416 | 68 | 218 | 5.2 | 7.8 | 0.00 | 0.00 | 0.00 | 70 | 1012.0 |
| 20260503023914 | 69 | 193 | 2.6 | 7.0 | 0.00 | 0.00 | 0.00 | 69 | 1011.8 |
| 20260503023411 | 69 | 164 | 6.1 | 8.7 | 0.00 | 0.00 | 0.00 | 67 | 1012.1 |
| 20260503022908 | 69 | 190 | 3.5 | 5.2 | 0.00 | 0.00 | 0.00 | 66 | 1011.9 |
| 20260503022402 | 71 | 215 | 5.2 | 6.1 | 0.00 | 0.00 | 0.00 | 66 | 1011.8 |
| 20260503021858 | 73 | 174 | 0.9 | 2.6 | 0.00 | 0.00 | 0.00 | 63 | 1011.7 |
| 20260503021354 | 73 | 210 | 0.9 | 1.7 | 0.00 | 0.00 | 0.00 | 61 | 1011.3 |
| 20260503020851 | 73 | 263 | 0.0 | 0.9 | 0.00 | 0.00 | 0.00 | 61 | 1011.1 |
| 20260503020350 | 73 | 167 | 0.9 | 1.7 | 0.00 | 0.00 | 0.00 | 61 | 1010.8 |
| 20260503015846 | 73 | 188 | 0.0 | 1.7 | 0.00 | 0.00 | 0.00 | 61 | 1011.1 |
| 20260503015343 | 73 | 207 | 0.9 | 1.7 | 0.00 | 0.00 | 0.00 | 61 | 1011.0 |
| 20260503014838 | 73 | 163 | 1.7 | 1.7 | 0.00 | 0.00 | 0.00 | 61 | 1011.0 |
| 20260503014336 | 73 | 140 | 0.9 | 1.7 | 0.00 | 0.00 | 0.00 | 61 | 1011.2 |
| 20260503013834 | 73 | 157 | 0.0 | 0.9 | 0.00 | 0.00 | 0.00 | 60 | 1010.9 |
| 20260503013331 | 73 | 265 | 0.9 | 1.7 | 0.00 | 0.00 | 0.00 | 61 | 1010.8 |
| 20260503012828 | 72 | 177 | 0.9 | 2.6 | 0.00 | 0.00 | 0.00 | 62 | 1010.9 |
| 20260503012326 | 72 | 303 | 0.9 | 2.6 | 0.00 | 0.00 | 0.00 | 61 | 1010.8 |
| 20260503011822 | 72 | 188 | 1.7 | 1.7 | 0.00 | 0.00 | 0.00 | 61 | 1011.0 |
| 20260503011319 | 72 | 286 | 1.7 | 2.6 | 0.00 | 0.00 | 0.00 | 61 | 1010.9 |
| 20260503010815 | 73 | 173 | 0.9 | 1.7 | 0.00 | 0.00 | 0.00 | 60 | 1010.8 |
| 20260503010313 | 73 | 174 | 0.9 | 2.6 | 0.00 | 0.00 | 0.00 | 61 | 1011.0 |
| 20260503005809 | 72 | 330 | 2.6 | 4.3 | 0.00 | 0.00 | 0.00 | 61 | 1010.8 |
| 20260503005307 | 73 | 269 | 1.7 | 1.7 | 0.00 | 0.00 | 0.00 | 61 | 1010.8 |
| 20260503004803 | 73 | 230 | 0.9 | 4.3 | 0.00 | 0.00 | 0.00 | 60 | 1010.9 |
| 20260503004301 | 73 | 211 | 0.9 | 4.3 | 0.00 | 0.00 | 0.00 | 60 | 1010.9 |
| 20260503003758 | 74 | 275 | 1.7 | 4.3 | 0.00 | 0.00 | 0.00 | 60 | 1011.0 |
| 20260503003255 | 73 | 288 | 3.5 | 5.2 | 0.00 | 0.00 | 0.00 | 61 | 1010.9 |
| 20260503002752 | 73 | 306 | 4.3 | 5.2 | 0.00 | 0.00 | 0.00 | 59 | 1011.1 |
| 20260503002248 | 71 | 282 | 3.5 | 4.3 | 0.00 | 0.00 | 0.00 | 62 | 1011.1 |
| 20260503001745 | 72 | 307 | 2.6 | 5.2 | 0.00 | 0.00 | 0.00 | 61 | 1010.9 |
| 20260503001241 | 72 | 298 | 4.3 | 5.2 | 0.00 | 0.00 | 0.00 | 62 | 1011.0 |
| 20260503000739 | 72 | 185 | 2.6 | 2.6 | 0.00 | 0.00 | 0.00 | 61 | 1011.2 |
| 20260503000236 | 70 | 314 | 1.7 | 6.1 | 0.00 | 0.00 | 0.00 | 64 | 1011.0 |
| 20260502235733 | 71 | 298 | 2.6 | 5.2 | 0.00 | 0.00 | 0.00 | 63 | 1011.1 |
| 20260502235231 | 71 | 256 | 0.9 | 5.2 | 0.00 | 0.00 | 0.00 | 64 | 1011.1 |
| 20260502234727 | 72 | 248 | 1.7 | 4.3 | 0.00 | 0.00 | 0.00 | 62 | 1011.2 |
| 20260502234225 | 72 | 256 | 1.7 | 2.6 | 0.00 | 0.00 | 0.00 | 63 | 1011.5 |
| 20260502233720 | 71 | 171 | 0.9 | 4.3 | 0.00 | 0.00 | 0.00 | 64 | 1011.5 |
| 20260502233217 | 71 | 202 | 1.7 | 5.2 | 0.00 | 0.00 | 0.00 | 64 | 1011.2 |
| 20260502232713 | 69 | 181 | 0.9 | 5.2 | 0.00 | 0.00 | 0.00 | 67 | 1011.5 |
| 20260502232210 | 69 | 300 | 3.5 | 5.2 | 0.00 | 0.00 | 0.00 | 65 | 1011.6 |
| 20260502231707 | 70 | 318 | 3.5 | 4.3 | 0.00 | 0.00 | 0.00 | 65 | 1011.5 |
| 20260502231205 | 69 | 177 | 1.7 | 6.1 | 0.00 | 0.00 | 0.00 | 67 | 1011.5 |
| 20260502230703 | 70 | 310 | 2.6 | 6.1 | 0.00 | 0.00 | 0.00 | 66 | 1011.9 |